Location: Asheville, NC
(35.6000°N, 82.5500°W)
Time: 04:41:38
(UTC-05:00)

PCSat - Visible Passes

Search period start: 23 January 2018 00:00
Search period end: 02 February 2018 00:00
Orbit: 786 x 794 km, 67.0° (Epoch: 22 January)

Date Brightness Start Highest point End Pass type
(mag) Time Alt. Az. Time Alt. Az. Time Alt. Az.
23 Jan 9.5 19:01:12 10° NNW 19:06:39 80° ENE 19:12:02 10° SSE visible
23 Jan 12.6 20:48:04 10° W 20:49:15 11° WSW 20:50:26 10° WSW visible
24 Jan 9.6 18:30:22 10° NNW 18:35:42 57° ENE 18:41:01 10° SE visible
24 Jan 12.3 20:15:19 10° WNW 20:18:33 16° WSW 20:21:47 10° SW visible
25 Jan 11.9 19:43:37 10° NW 19:47:49 23° WSW 19:52:01 10° SSW visible
26 Jan 11.4 19:12:15 10° NW 19:17:03 33° WSW 19:21:51 10° S visible
27 Jan 10.7 18:41:04 10° NW 18:46:15 48° WSW 18:51:25 10° S visible
29 Jan 12.5 07:06:33 10° SSE 07:10:45 23° ESE 07:14:58 10° NE visible
30 Jan 12.8 06:36:46 10° SE 06:40:01 16° ESE 06:43:16 10° ENE visible
30 Jan 12.9 18:53:23 10° WNW 18:56:25 15° WSW 18:59:27 10° SW visible
31 Jan 13.2 06:08:06 10° ESE 06:09:19 11° ESE 06:10:32 10° E visible
31 Jan 12.6 18:21:36 10° WNW 18:25:41 22° WSW 18:29:46 10° SSW visible
